FW5414 Weather Reports


time (UTC)temp
C
wind
direction
speed
KPH
gust
KPH
rain 1hr
cm
rain 24hr
cm
rain mn
cm
humidity
%
barometer
mb
20260503211906 17 319 3.2 9.7 0.00 0.00 0.00 61 1020.0
20260503211410 17 305 8.0 9.7 0.00 0.00 0.00 62 1019.0
20260503210906 16 300 4.8 4.8 0.00 0.00 0.00 61 1019.0
20260503210407 16 304 1.6 4.8 0.00 0.00 0.00 61 1019.0
20260503205910 15 180 0.0 3.2 0.00 0.00 0.00 61 1019.0
20260503205406 15 180 3.2 4.8 0.00 0.00 0.00 62 1019.0
20260503204907 15 158 3.2 4.8 0.00 0.00 0.00 61 1019.0
20260503204406 15 158 3.2 4.8 0.00 0.00 0.00 61 1019.0
20260503203907 15 158 0.0 4.8 0.00 0.00 0.00 60 1019.0
20260503203406 15 180 4.8 4.8 0.00 0.00 0.00 61 1019.0
20260503202906 16 158 3.2 4.8 0.00 0.00 0.00 58 1019.0
20260503202407 16 158 3.2 3.2 0.00 0.00 0.00 57 1019.0
20260503201906 16 158 3.2 3.2 0.00 0.00 0.00 55 1019.0
20260503200906 16 158 0.0 3.2 0.00 0.00 0.00 55 1019.0
20260503200407 17 158 0.0 3.2 0.00 0.00 0.00 54 1019.0
20260503195909 17 158 1.6 4.8 0.00 0.00 0.00 54 1019.0
20260503195406 17 158 1.6 4.8 0.00 0.00 0.00 53 1019.0
20260503194406 17 330 1.6 3.2 0.00 0.00 0.00 53 1019.0
20260503193906 17 158 1.6 3.2 0.00 0.00 0.00 51 1019.0
20260503193407 17 158 0.0 3.2 0.00 0.00 0.00 51 1019.0
20260503192906 17 135 1.6 3.2 0.00 0.00 0.00 52 1019.0
20260503192409 17 135 0.0 3.2 0.00 0.00 0.00 51 1019.0
20260503191906 17 90 0.0 3.2 0.00 0.00 0.00 50 1019.0
20260503191414 17 143 3.2 3.2 0.00 0.00 0.00 50 1019.0
20260503190906 17 112 0.0 3.2 0.00 0.00 0.00 50 1019.0
20260503190406 17 282 0.0 8.0 0.00 0.00 0.00 50 1019.0
20260503185913 17 154 3.2 8.0 0.00 0.00 0.00 49 1018.0
20260503184906 18 158 1.6 3.2 0.00 0.00 0.00 48 1018.0
20260503184406 18 158 3.2 3.2 0.00 0.00 0.00 46 1018.0
20260503183906 18 135 0.0 4.8 0.00 0.00 0.00 44 1018.0
20260503182406 20 135 0.0 3.2 0.00 0.00 0.00 40 1018.0
20260503181906 20 135 0.0 3.2 0.00 0.00 0.00 38 1018.0
20260503181406 21 135 0.0 3.2 0.00 0.00 0.00 37 1018.0
20260503180406 21 94 3.2 8.0 0.00 0.00 0.00 36 1018.0
20260503175906 22 9 3.2 8.0 0.00 0.00 0.00 34 1018.0
20260503175406 22 15 3.2 8.0 0.00 0.00 0.00 33 1018.0
20260503174417 22 2 4.8 9.7 0.00 0.00 0.00 32 1017.0
20260503172906 23 0 4.8 12.9 0.00 0.00 0.00 31 1017.0
20260503171906 23 1 4.8 11.3 0.00 0.00 0.00 30 1017.0
20260503171406 23 3 8.0 12.9 0.00 0.00 0.00 30 1017.0
20260503170907 23 2 8.0 12.9 0.00 0.00 0.00 29 1017.0
20260503150905 25 14 4.8 20.9 0.00 0.00 0.00 23 1019.0
20260503150406 25 322 8.0 16.1 0.00 0.00 0.00 22 1019.0
20260503130905 24 16 11.3 20.9 0.00 0.00 0.00 26 1019.0
20260503110408 22 338 8.0 14.5 0.00 0.00 0.00 37 1020.0
20260503090405 18 345 4.8 9.7 0.00 0.00 0.00 51 1021.0
20260503081405 16 280 4.8 9.7 0.00 0.00 0.00 54 1022.0
20260503080405 17 278 4.8 9.7 0.00 0.00 0.00 54 1022.0
20260503072906 15 77 0.0 4.8 0.00 0.00 0.00 59 1023.0
20260503072405 15 231 1.6 8.0 0.00 0.00 0.00 62 1023.0
20260503071905 14 251 1.6 8.0 0.00 0.00 0.00 62 1023.0
20260503070905 13 310 1.6 8.0 0.00 0.00 0.00 64 1023.0
20260503054905 10 270 1.6 1.6 0.00 0.00 0.00 72 1023.0
20260503053905 9 158 1.6 3.2 0.00 0.00 0.00 72 1023.0
20260503052905 8 128 3.2 4.8 0.00 0.00 0.00 71 1023.0
20260503052405 8 141 3.2 4.8 0.00 0.00 0.00 72 1023.0
20260503051905 8 132 0.0 1.6 0.00 0.00 0.00 73 1023.0
20260503051405 8 270 0.0 3.2 0.00 0.00 0.00 74 1022.0
20260503050908 8 270 0.0 4.8 0.00 0.00 0.00 76 1022.0
20260503050408 8 196 3.2 4.8 0.00 0.00 0.00 78 1022.0
20260503045905 8 189 3.2 4.8 0.00 0.00 0.00 78 1022.0
20260503045405 7 186 3.2 4.8 0.00 0.00 0.00 74 1022.0
20260503044912 7 161 3.2 4.8 0.00 0.00 0.00 74 1022.0
20260503044407 7 180 0.0 4.8 0.00 0.00 0.00 74 1022.0
20260503043905 7 175 3.2 4.8 0.00 0.00 0.00 73 1022.0
20260503043406 7 139 3.2 4.8 0.00 0.00 0.00 72 1022.0
20260503042905 7 148 3.2 4.8 0.00 0.00 0.00 71 1022.0
20260503042406 6 168 3.2 4.8 0.00 0.00 0.00 71 1022.0
20260503041905 6 138 3.2 4.8 0.00 0.00 0.00 71 1022.0
20260503041405 6 125 3.2 4.8 0.00 0.00 0.00 71 1022.0
20260503040905 6 118 3.2 3.2 0.00 0.00 0.00 71 1022.0
20260503040405 6 112 0.0 3.2 0.00 0.00 0.00 70 1022.0
20260503035905 7 158 0.0 4.8 0.00 0.00 0.00 70 1022.0
20260503035404 6 158 3.2 4.8 0.00 0.00 0.00 70 1022.0
20260503034406 7 110 3.2 4.8 0.00 0.00 0.00 71 1022.0
20260503033905 7 112 3.2 3.2 0.00 0.00 0.00 69 1022.0
20260503033405 7 180 0.0 0.0 0.00 0.00 0.00 69 1022.0
20260503032905 7 180 0.0 0.0 0.00 0.00 0.00 70 1021.0
20260503032405 7 180 0.0 3.2 0.00 0.00 0.00 70 1021.0
20260503031905 7 180 1.6 3.2 0.00 0.00 0.00 71 1021.0
20260503031405 7 180 1.6 3.2 0.00 0.00 0.00 71 1021.0
20260503030904 7 139 0.0 4.8 0.00 0.00 0.00 69 1021.0
20260503030406 7 140 3.2 4.8 0.00 0.00 0.00 70 1021.0
20260503025906 7 161 1.6 4.8 0.00 0.00 0.00 69 1022.0
20260503025405 7 135 0.0 4.8 0.00 0.00 0.00 69 1022.0
20260503024905 7 168 3.2 8.0 0.00 0.00 0.00 72 1022.0
20260503024405 7 165 4.8 8.0 0.00 0.00 0.00 72 1021.0
20260503023906 7 158 0.0 3.2 0.00 0.00 0.00 66 1021.0
20260503023405 7 148 3.2 3.2 0.00 0.00 0.00 66 1021.0
20260503022905 7 141 1.6 3.2 0.00 0.00 0.00 66 1022.0
20260503022405 8 128 3.2 3.2 0.00 0.00 0.00 67 1022.0
20260503021905 8 135 1.6 3.2 0.00 0.00 0.00 66 1022.0
20260503021405 8 132 1.6 3.2 0.00 0.00 0.00 66 1022.0
20260503020905 8 135 0.0 4.8 0.00 0.00 0.00 66 1022.0
20260503020407 8 135 1.6 4.8 0.00 0.00 0.00 66 1022.0
20260503015904 8 112 0.0 3.2 0.00 0.00 0.00 66 1022.0
20260503014906 8 112 0.0 4.8 0.00 0.00 0.00 66 1022.0
20260503013909 8 90 3.2 4.8 0.00 0.00 0.00 66 1022.0
20260503013406 8 131 3.2 4.8 0.00 0.00 0.00 66 1022.0
20260503012407 8 112 3.2 4.8 0.00 0.00 0.00 69 1022.0
20260503011908 8 93 4.8 4.8 0.00 0.00 0.00 69 1022.0
20260503011406 8 90 1.6 4.8 0.00 0.00 0.00 68 1023.0
20260503010407 8 68 3.2 4.8 0.00 0.00 0.00 67 1023.0
20260503005907 9 112 3.2 4.8 0.00 0.00 0.00 65 1022.0
20260503004906 9 112 3.2 8.0 0.00 0.00 0.00 63 1022.0
20260503004406 9 135 3.2 4.8 0.00 0.00 0.00 63 1022.0
20260503003406 9 122 0.0 3.2 0.00 0.00 0.00 63 1022.0
20260503002907 9 132 1.6 3.2 0.00 0.00 0.00 63 1022.0
20260503002406 9 135 1.6 4.8 0.00 0.00 0.00 64 1022.0
20260503001406 9 163 3.2 4.8 0.00 0.00 0.00 64 1022.0
20260503000906 9 123 3.2 3.2 0.00 0.00 0.00 63 1022.0
20260503000415 9 148 3.2 9.7 0.00 0.00 0.00 63 1022.0
20260502235906 9 147 4.8 9.7 0.00 0.00 0.00 64 1023.0
20260502235407 9 154 4.8 9.7 0.00 0.00 0.00 65 1023.0
20260502234906 9 161 4.8 8.0 0.00 0.00 0.00 64 1023.0
20260502233911 9 164 3.2 4.8 0.00 0.00 0.00 64 1023.0
20260502233407 9 156 3.2 4.8 0.00 0.00 0.00 66 1023.0
20260502232906 10 169 3.2 8.0 0.00 0.00 0.00 66 1023.0
20260502232406 10 167 4.8 8.0 0.00 0.00 0.00 64 1023.0
20260502231411 10 158 3.2 4.8 0.00 0.00 0.00 64 1023.0
20260502230906 10 158 3.2 4.8 0.00 0.00 0.00 60 1023.0
20260502230406 10 152 1.6 4.8 0.00 0.00 0.00 60 1023.0
20260502225409 10 161 4.8 8.0 0.00 0.00 0.00 62 1023.0
20260502224907 10 161 4.8 8.0 0.00 0.00 0.00 58 1023.0
20260502224406 10 148 3.2 8.0 0.00 0.00 0.00 58 1023.0
20260502223906 11 155 4.8 8.0 0.00 0.00 0.00 57 1023.0
20260502223406 11 151 3.2 8.0 0.00 0.00 0.00 54 1023.0
20260502222907 11 135 0.0 8.0 0.00 0.00 0.00 55 1023.0
20260502221906 12 180 0.0 1.6 0.00 0.00 0.00 53 1023.0
20260502221406 12 135 0.0 0.0 0.00 0.00 0.00 52 1023.0
20260502220907 12 135 0.0 0.0 0.00 0.00 0.00 52 1023.0
20260502215910 12 135 0.0 4.8 0.00 0.00 0.00 51 1023.0
20260502214906 12 158 4.8 8.0 0.00 0.00 0.00 52 1023.0
20260502214406 12 142 1.6 3.2 0.00 0.00 0.00 51 1022.0
20260502213906 13 158 3.2 3.2 0.00 0.00 0.00 50 1022.0
20260502212910 13 135 0.0 3.2 0.00 0.00 0.00 48 1022.0